Index of /20260430/WXO-DD/model_gdps/15km/00/069
Name Last modified Size Description
Parent Directory -
20260430T00Z_MSC_GDPS_AbsoluteVorticity_IsbL-0200_LatLon0.15_PT069H.grib2 2026-04-30 04:16 1.5M
20260430T00Z_MSC_GDPS_AbsoluteVorticity_IsbL-0250_LatLon0.15_PT069H.grib2 2026-04-30 04:16 1.3M
20260430T00Z_MSC_GDPS_AbsoluteVorticity_IsbL-0500_LatLon0.15_PT069H.grib2 2026-04-30 04:16 1.5M
20260430T00Z_MSC_GDPS_AbsoluteVorticity_IsbL-0700_LatLon0.15_PT069H.grib2 2026-04-30 04:16 1.3M
20260430T00Z_MSC_GDPS_AbsoluteVorticity_IsbL-0850_LatLon0.15_PT069H.grib2 2026-04-30 04:16 1.6M
20260430T00Z_MSC_GDPS_AirTemp_AGL-120m_LatLon0.15_PT069H.grib2 2026-04-30 04:16 912K
20260430T00Z_MSC_GDPS_AirTemp_AGL-2m_LatLon0.15_PT069H.grib2 2026-04-30 04:16 1.0M
20260430T00Z_MSC_GDPS_AirTemp_AGL-40m_LatLon0.15_PT069H.grib2 2026-04-30 04:16 819K
20260430T00Z_MSC_GDPS_AirTemp_AGL-80m_LatLon0.15_PT069H.grib2 2026-04-30 04:16 806K
20260430T00Z_MSC_GDPS_AirTemp_IsbL-0001_LatLon0.15_PT069H.grib2 2026-04-30 04:16 714K
20260430T00Z_MSC_GDPS_AirTemp_IsbL-0005_LatLon0.15_PT069H.grib2 2026-04-30 04:16 687K
20260430T00Z_MSC_GDPS_AirTemp_IsbL-0010_LatLon0.15_PT069H.grib2 2026-04-30 04:16 694K
20260430T00Z_MSC_GDPS_AirTemp_IsbL-0020_LatLon0.15_PT069H.grib2 2026-04-30 04:16 785K
20260430T00Z_MSC_GDPS_AirTemp_IsbL-0030_LatLon0.15_PT069H.grib2 2026-04-30 04:16 753K
20260430T00Z_MSC_GDPS_AirTemp_IsbL-0050_LatLon0.15_PT069H.grib2 2026-04-30 04:16 811K
20260430T00Z_MSC_GDPS_AirTemp_IsbL-0100_LatLon0.15_PT069H.grib2 2026-04-30 04:16 970K
20260430T00Z_MSC_GDPS_AirTemp_IsbL-0150_LatLon0.15_PT069H.grib2 2026-04-30 04:16 1.0M
20260430T00Z_MSC_GDPS_AirTemp_IsbL-0175_LatLon0.15_PT069H.grib2 2026-04-30 04:16 964K
20260430T00Z_MSC_GDPS_AirTemp_IsbL-0200_LatLon0.15_PT069H.grib2 2026-04-30 04:16 1.0M
20260430T00Z_MSC_GDPS_AirTemp_IsbL-0225_LatLon0.15_PT069H.grib2 2026-04-30 04:16 1.0M
20260430T00Z_MSC_GDPS_AirTemp_IsbL-0250_LatLon0.15_PT069H.grib2 2026-04-30 04:16 1.0M
20260430T00Z_MSC_GDPS_AirTemp_IsbL-0275_LatLon0.15_PT069H.grib2 2026-04-30 04:16 1.0M
20260430T00Z_MSC_GDPS_AirTemp_IsbL-0300_LatLon0.15_PT069H.grib2 2026-04-30 04:16 1.0M
20260430T00Z_MSC_GDPS_AirTemp_IsbL-0350_LatLon0.15_PT069H.grib2 2026-04-30 04:16 928K
20260430T00Z_MSC_GDPS_AirTemp_IsbL-0400_LatLon0.15_PT069H.grib2 2026-04-30 04:16 941K
20260430T00Z_MSC_GDPS_AirTemp_IsbL-0450_LatLon0.15_PT069H.grib2 2026-04-30 04:16 965K
20260430T00Z_MSC_GDPS_AirTemp_IsbL-0500_LatLon0.15_PT069H.grib2 2026-04-30 04:16 1.0M
20260430T00Z_MSC_GDPS_AirTemp_IsbL-0550_LatLon0.15_PT069H.grib2 2026-04-30 04:16 806K
20260430T00Z_MSC_GDPS_AirTemp_IsbL-0600_LatLon0.15_PT069H.grib2 2026-04-30 04:16 897K
20260430T00Z_MSC_GDPS_AirTemp_IsbL-0650_LatLon0.15_PT069H.grib2 2026-04-30 04:16 922K
20260430T00Z_MSC_GDPS_AirTemp_IsbL-0700_LatLon0.15_PT069H.grib2 2026-04-30 04:16 953K
20260430T00Z_MSC_GDPS_AirTemp_IsbL-0750_LatLon0.15_PT069H.grib2 2026-04-30 04:16 1.0M
20260430T00Z_MSC_GDPS_AirTemp_IsbL-0800_LatLon0.15_PT069H.grib2 2026-04-30 04:16 1.1M
20260430T00Z_MSC_GDPS_AirTemp_IsbL-0850_LatLon0.15_PT069H.grib2 2026-04-30 04:16 1.1M
20260430T00Z_MSC_GDPS_AirTemp_IsbL-0875_LatLon0.15_PT069H.grib2 2026-04-30 04:16 1.1M
20260430T00Z_MSC_GDPS_AirTemp_IsbL-0900_LatLon0.15_PT069H.grib2 2026-04-30 04:16 1.1M
20260430T00Z_MSC_GDPS_AirTemp_IsbL-0925_LatLon0.15_PT069H.grib2 2026-04-30 04:16 1.1M
20260430T00Z_MSC_GDPS_AirTemp_IsbL-0950_LatLon0.15_PT069H.grib2 2026-04-30 04:16 1.1M
20260430T00Z_MSC_GDPS_AirTemp_IsbL-0970_LatLon0.15_PT069H.grib2 2026-04-30 04:16 1.2M
20260430T00Z_MSC_GDPS_AirTemp_IsbL-0985_LatLon0.15_PT069H.grib2 2026-04-30 04:16 1.1M
20260430T00Z_MSC_GDPS_AirTemp_IsbL-1000_LatLon0.15_PT069H.grib2 2026-04-30 04:16 1.1M
20260430T00Z_MSC_GDPS_AirTemp_IsbL-1015_LatLon0.15_PT069H.grib2 2026-04-30 04:16 1.1M
20260430T00Z_MSC_GDPS_Albedo_Sfc_LatLon0.15_PT069H.grib2 2026-04-30 04:16 242K
20260430T00Z_MSC_GDPS_CAPE_Sfc_LatLon0.15_PT069H.grib2 2026-04-30 04:16 3.7M
20260430T00Z_MSC_GDPS_CIN_Sfc_LatLon0.15_PT069H.grib2 2026-04-30 04:16 2.9M
20260430T00Z_MSC_GDPS_CloudWater_EAtm_LatLon0.15_PT069H.grib2 2026-04-30 04:16 535K
20260430T00Z_MSC_GDPS_ConvectivePrecip-Accum_Sfc_LatLon0.15_PT069H.grib2 2026-04-30 04:16 3.2M
20260430T00Z_MSC_GDPS_DewPointDepression_AGL-2m_LatLon0.15_PT069H.grib2 2026-04-30 04:16 767K
20260430T00Z_MSC_GDPS_DewPointDepression_IsbL-0010_LatLon0.15_PT069H.grib2 2026-04-30 04:16 67K
20260430T00Z_MSC_GDPS_DewPointDepression_IsbL-0020_LatLon0.15_PT069H.grib2 2026-04-30 04:16 66K
20260430T00Z_MSC_GDPS_DewPointDepression_IsbL-0030_LatLon0.15_PT069H.grib2 2026-04-30 04:16 81K
20260430T00Z_MSC_GDPS_DewPointDepression_IsbL-0050_LatLon0.15_PT069H.grib2 2026-04-30 04:16 378K
20260430T00Z_MSC_GDPS_DewPointDepression_IsbL-0100_LatLon0.15_PT069H.grib2 2026-04-30 04:16 416K
20260430T00Z_MSC_GDPS_DewPointDepression_IsbL-0150_LatLon0.15_PT069H.grib2 2026-04-30 04:16 468K
20260430T00Z_MSC_GDPS_DewPointDepression_IsbL-0175_LatLon0.15_PT069H.grib2 2026-04-30 04:16 576K
20260430T00Z_MSC_GDPS_DewPointDepression_IsbL-0200_LatLon0.15_PT069H.grib2 2026-04-30 04:16 682K
20260430T00Z_MSC_GDPS_DewPointDepression_IsbL-0225_LatLon0.15_PT069H.grib2 2026-04-30 04:16 778K
20260430T00Z_MSC_GDPS_DewPointDepression_IsbL-0250_LatLon0.15_PT069H.grib2 2026-04-30 04:16 855K
20260430T00Z_MSC_GDPS_DewPointDepression_IsbL-0275_LatLon0.15_PT069H.grib2 2026-04-30 04:16 873K
20260430T00Z_MSC_GDPS_DewPointDepression_IsbL-0300_LatLon0.15_PT069H.grib2 2026-04-30 04:16 914K
20260430T00Z_MSC_GDPS_DewPointDepression_IsbL-0350_LatLon0.15_PT069H.grib2 2026-04-30 04:16 946K
20260430T00Z_MSC_GDPS_DewPointDepression_IsbL-0400_LatLon0.15_PT069H.grib2 2026-04-30 04:16 1.0M
20260430T00Z_MSC_GDPS_DewPointDepression_IsbL-0450_LatLon0.15_PT069H.grib2 2026-04-30 04:16 1.0M
20260430T00Z_MSC_GDPS_DewPointDepression_IsbL-0500_LatLon0.15_PT069H.grib2 2026-04-30 04:16 1.0M
20260430T00Z_MSC_GDPS_DewPointDepression_IsbL-0550_LatLon0.15_PT069H.grib2 2026-04-30 04:16 1.0M
20260430T00Z_MSC_GDPS_DewPointDepression_IsbL-0600_LatLon0.15_PT069H.grib2 2026-04-30 04:16 1.0M
20260430T00Z_MSC_GDPS_DewPointDepression_IsbL-0650_LatLon0.15_PT069H.grib2 2026-04-30 04:16 1.1M
20260430T00Z_MSC_GDPS_DewPointDepression_IsbL-0700_LatLon0.15_PT069H.grib2 2026-04-30 04:16 1.1M
20260430T00Z_MSC_GDPS_DewPointDepression_IsbL-0750_LatLon0.15_PT069H.grib2 2026-04-30 04:16 1.1M
20260430T00Z_MSC_GDPS_DewPointDepression_IsbL-0800_LatLon0.15_PT069H.grib2 2026-04-30 04:16 1.2M
20260430T00Z_MSC_GDPS_DewPointDepression_IsbL-0850_LatLon0.15_PT069H.grib2 2026-04-30 04:16 1.2M
20260430T00Z_MSC_GDPS_DewPointDepression_IsbL-0875_LatLon0.15_PT069H.grib2 2026-04-30 04:16 1.1M
20260430T00Z_MSC_GDPS_DewPointDepression_IsbL-0900_LatLon0.15_PT069H.grib2 2026-04-30 04:16 1.1M
20260430T00Z_MSC_GDPS_DewPointDepression_IsbL-0925_LatLon0.15_PT069H.grib2 2026-04-30 04:16 1.0M
20260430T00Z_MSC_GDPS_DewPointDepression_IsbL-0950_LatLon0.15_PT069H.grib2 2026-04-30 04:16 1.0M
20260430T00Z_MSC_GDPS_DewPointDepression_IsbL-0970_LatLon0.15_PT069H.grib2 2026-04-30 04:16 1.0M
20260430T00Z_MSC_GDPS_DewPointDepression_IsbL-0985_LatLon0.15_PT069H.grib2 2026-04-30 04:16 1.0M
20260430T00Z_MSC_GDPS_DewPointDepression_IsbL-1000_LatLon0.15_PT069H.grib2 2026-04-30 04:16 1.0M
20260430T00Z_MSC_GDPS_DewPointDepression_IsbL-1015_LatLon0.15_PT069H.grib2 2026-04-30 04:16 920K
20260430T00Z_MSC_GDPS_DewPoint_AGL-2m_LatLon0.15_PT069H.grib2 2026-04-30 04:16 608K
20260430T00Z_MSC_GDPS_DownwardLongwaveRadiationFlux-Accum_Sfc_LatLon0.15_PT069H.grib2 2026-04-30 04:16 902K
20260430T00Z_MSC_GDPS_DownwardShortwaveRadiationFlux-Accum_NTAtm_LatLon0.15_PT069H.grib2 2026-04-30 04:16 186K
20260430T00Z_MSC_GDPS_DownwardShortwaveRadiationFlux-Accum_Sfc_LatLon0.15_PT069H.grib2 2026-04-30 04:16 1.1M
20260430T00Z_MSC_GDPS_FreezingRain-Accum1h_Sfc_LatLon0.15_PT069H.grib2 2026-04-30 04:16 37K
20260430T00Z_MSC_GDPS_FreezingRain-Accum3h_Sfc_LatLon0.15_PT069H.grib2 2026-04-30 04:16 44K
20260430T00Z_MSC_GDPS_FreezingRain-Accum_Sfc_LatLon0.15_PT069H.grib2 2026-04-30 04:16 312K
20260430T00Z_MSC_GDPS_GeopotentialHeight_IsbL-0001_LatLon0.15_PT069H.grib2 2026-04-30 04:16 423K
20260430T00Z_MSC_GDPS_GeopotentialHeight_IsbL-0005_LatLon0.15_PT069H.grib2 2026-04-30 04:16 494K
20260430T00Z_MSC_GDPS_GeopotentialHeight_IsbL-0010_LatLon0.15_PT069H.grib2 2026-04-30 04:16 486K
20260430T00Z_MSC_GDPS_GeopotentialHeight_IsbL-0020_LatLon0.15_PT069H.grib2 2026-04-30 04:16 413K
20260430T00Z_MSC_GDPS_GeopotentialHeight_IsbL-0030_LatLon0.15_PT069H.grib2 2026-04-30 04:16 567K
20260430T00Z_MSC_GDPS_GeopotentialHeight_IsbL-0050_LatLon0.15_PT069H.grib2 2026-04-30 04:16 566K
20260430T00Z_MSC_GDPS_GeopotentialHeight_IsbL-0100_LatLon0.15_PT069H.grib2 2026-04-30 04:16 611K
20260430T00Z_MSC_GDPS_GeopotentialHeight_IsbL-0150_LatLon0.15_PT069H.grib2 2026-04-30 04:16 631K
20260430T00Z_MSC_GDPS_GeopotentialHeight_IsbL-0175_LatLon0.15_PT069H.grib2 2026-04-30 04:16 634K
20260430T00Z_MSC_GDPS_GeopotentialHeight_IsbL-0200_LatLon0.15_PT069H.grib2 2026-04-30 04:16 638K
20260430T00Z_MSC_GDPS_GeopotentialHeight_IsbL-0225_LatLon0.15_PT069H.grib2 2026-04-30 04:16 641K
20260430T00Z_MSC_GDPS_GeopotentialHeight_IsbL-0250_LatLon0.15_PT069H.grib2 2026-04-30 04:16 643K
20260430T00Z_MSC_GDPS_GeopotentialHeight_IsbL-0275_LatLon0.15_PT069H.grib2 2026-04-30 04:16 642K
20260430T00Z_MSC_GDPS_GeopotentialHeight_IsbL-0300_LatLon0.15_PT069H.grib2 2026-04-30 04:16 640K
20260430T00Z_MSC_GDPS_GeopotentialHeight_IsbL-0350_LatLon0.15_PT069H.grib2 2026-04-30 04:16 628K
20260430T00Z_MSC_GDPS_GeopotentialHeight_IsbL-0400_LatLon0.15_PT069H.grib2 2026-04-30 04:16 621K
20260430T00Z_MSC_GDPS_GeopotentialHeight_IsbL-0450_LatLon0.15_PT069H.grib2 2026-04-30 04:16 613K
20260430T00Z_MSC_GDPS_GeopotentialHeight_IsbL-0500_LatLon0.15_PT069H.grib2 2026-04-30 04:16 604K
20260430T00Z_MSC_GDPS_GeopotentialHeight_IsbL-0550_LatLon0.15_PT069H.grib2 2026-04-30 04:16 527K
20260430T00Z_MSC_GDPS_GeopotentialHeight_IsbL-0600_LatLon0.15_PT069H.grib2 2026-04-30 04:16 524K
20260430T00Z_MSC_GDPS_GeopotentialHeight_IsbL-0650_LatLon0.15_PT069H.grib2 2026-04-30 04:16 689K
20260430T00Z_MSC_GDPS_GeopotentialHeight_IsbL-0700_LatLon0.15_PT069H.grib2 2026-04-30 04:16 689K
20260430T00Z_MSC_GDPS_GeopotentialHeight_IsbL-0750_LatLon0.15_PT069H.grib2 2026-04-30 04:16 695K
20260430T00Z_MSC_GDPS_GeopotentialHeight_IsbL-0800_LatLon0.15_PT069H.grib2 2026-04-30 04:16 704K
20260430T00Z_MSC_GDPS_GeopotentialHeight_IsbL-0850_LatLon0.15_PT069H.grib2 2026-04-30 04:16 715K
20260430T00Z_MSC_GDPS_GeopotentialHeight_IsbL-0875_LatLon0.15_PT069H.grib2 2026-04-30 04:16 720K
20260430T00Z_MSC_GDPS_GeopotentialHeight_IsbL-0900_LatLon0.15_PT069H.grib2 2026-04-30 04:16 726K
20260430T00Z_MSC_GDPS_GeopotentialHeight_IsbL-0925_LatLon0.15_PT069H.grib2 2026-04-30 04:16 734K
20260430T00Z_MSC_GDPS_GeopotentialHeight_IsbL-0950_LatLon0.15_PT069H.grib2 2026-04-30 04:16 739K
20260430T00Z_MSC_GDPS_GeopotentialHeight_IsbL-0970_LatLon0.15_PT069H.grib2 2026-04-30 04:16 755K
20260430T00Z_MSC_GDPS_GeopotentialHeight_IsbL-0985_LatLon0.15_PT069H.grib2 2026-04-30 04:16 770K
20260430T00Z_MSC_GDPS_GeopotentialHeight_IsbL-1000_LatLon0.15_PT069H.grib2 2026-04-30 04:16 791K
20260430T00Z_MSC_GDPS_GeopotentialHeight_IsbL-1015_LatLon0.15_PT069H.grib2 2026-04-30 04:16 814K
20260430T00Z_MSC_GDPS_Humidex_Sfc_LatLon0.15_PT069H.grib2 2026-04-30 04:16 5.3M
20260430T00Z_MSC_GDPS_IcePellets-Accum1h_Sfc_LatLon0.15_PT069H.grib2 2026-04-30 04:16 4.5K
20260430T00Z_MSC_GDPS_IcePellets-Accum3h_Sfc_LatLon0.15_PT069H.grib2 2026-04-30 04:16 7.1K
20260430T00Z_MSC_GDPS_IcePellets-Accum_Sfc_LatLon0.15_PT069H.grib2 2026-04-30 04:16 71K
20260430T00Z_MSC_GDPS_KIndex_Sfc_LatLon0.15_PT069H.grib2 2026-04-30 04:16 6.5M
20260430T00Z_MSC_GDPS_LatentHeatNetFlux_Sfc_LatLon0.15_PT069H.grib2 2026-04-30 04:16 503K
20260430T00Z_MSC_GDPS_LiftedIndex-MU-VT_IsbL-0500_LatLon0.15_PT069H.grib2 2026-04-30 04:16 5.4M
20260430T00Z_MSC_GDPS_NetLongwaveRadiationFlux-Accum_Sfc_LatLon0.15_PT069H.grib2 2026-04-30 04:16 963K
20260430T00Z_MSC_GDPS_NetShortwaveRadiationFlux-Accum_Sfc_LatLon0.15_PT069H.grib2 2026-04-30 04:16 1.1M
20260430T00Z_MSC_GDPS_O3MixingRatio_Sfc_LatLon0.15_PT069H.grib2 2026-04-30 04:50 1.9M
20260430T00Z_MSC_GDPS_O3_EAtm_LatLon0.15_PT069H.grib2 2026-04-30 04:50 2.4M
20260430T00Z_MSC_GDPS_PlanetaryBoundaryLayerHeight_Sfc_LatLon0.15_PT069H.grib2 2026-04-30 04:16 2.4M
20260430T00Z_MSC_GDPS_Precip-Accum1h_Sfc_LatLon0.15_PT069H.grib2 2026-04-30 04:16 3.2M
20260430T00Z_MSC_GDPS_Precip-Accum3h_Sfc_LatLon0.15_PT069H.grib2 2026-04-30 04:16 3.4M
20260430T00Z_MSC_GDPS_Precip-Accum_Sfc_LatLon0.15_PT069H.grib2 2026-04-30 04:16 5.1M
20260430T00Z_MSC_GDPS_PrecipRate_Sfc_LatLon0.15_PT069H.grib2 2026-04-30 04:16 3.1M
20260430T00Z_MSC_GDPS_PrecipType-Instant_Sfc_LatLon0.15_PT069H.grib2 2026-04-30 04:16 1.6M
20260430T00Z_MSC_GDPS_Pressure_MSL_LatLon0.15_PT069H.grib2 2026-04-30 04:16 726K
20260430T00Z_MSC_GDPS_Pressure_PVU-1.5_LatLon0.15_PT069H.grib2 2026-04-30 04:16 5.7M
20260430T00Z_MSC_GDPS_Pressure_PVU-1_LatLon0.15_PT069H.grib2 2026-04-30 04:16 6.0M
20260430T00Z_MSC_GDPS_Pressure_PVU-2_LatLon0.15_PT069H.grib2 2026-04-30 04:16 5.6M
20260430T00Z_MSC_GDPS_Pressure_Sfc_LatLon0.15_PT069H.grib2 2026-04-30 04:16 1.1M
20260430T00Z_MSC_GDPS_RadiativeTemp_Sfc_LatLon0.15_PT069H.grib2 2026-04-30 04:16 656K
20260430T00Z_MSC_GDPS_Rain-Accum1h_Sfc_LatLon0.15_PT069H.grib2 2026-04-30 04:16 1.6M
20260430T00Z_MSC_GDPS_Rain-Accum3h_Sfc_LatLon0.15_PT069H.grib2 2026-04-30 04:16 1.7M
20260430T00Z_MSC_GDPS_Rain-Accum_Sfc_LatLon0.15_PT069H.grib2 2026-04-30 04:16 3.9M
20260430T00Z_MSC_GDPS_RelativeHumidity_AGL-2m_LatLon0.15_PT069H.grib2 2026-04-30 04:16 1.0M
20260430T00Z_MSC_GDPS_RelativeHumidity_IsbL-0010_LatLon0.15_PT069H.grib2 2026-04-30 04:16 200K
20260430T00Z_MSC_GDPS_RelativeHumidity_IsbL-0020_LatLon0.15_PT069H.grib2 2026-04-30 04:16 168K
20260430T00Z_MSC_GDPS_RelativeHumidity_IsbL-0030_LatLon0.15_PT069H.grib2 2026-04-30 04:16 268K
20260430T00Z_MSC_GDPS_RelativeHumidity_IsbL-0050_LatLon0.15_PT069H.grib2 2026-04-30 04:16 422K
20260430T00Z_MSC_GDPS_RelativeHumidity_IsbL-0100_LatLon0.15_PT069H.grib2 2026-04-30 04:16 513K
20260430T00Z_MSC_GDPS_RelativeHumidity_IsbL-0150_LatLon0.15_PT069H.grib2 2026-04-30 04:16 662K
20260430T00Z_MSC_GDPS_RelativeHumidity_IsbL-0175_LatLon0.15_PT069H.grib2 2026-04-30 04:16 781K
20260430T00Z_MSC_GDPS_RelativeHumidity_IsbL-0200_LatLon0.15_PT069H.grib2 2026-04-30 04:16 700K
20260430T00Z_MSC_GDPS_RelativeHumidity_IsbL-0225_LatLon0.15_PT069H.grib2 2026-04-30 04:16 790K
20260430T00Z_MSC_GDPS_RelativeHumidity_IsbL-0250_LatLon0.15_PT069H.grib2 2026-04-30 04:16 858K
20260430T00Z_MSC_GDPS_RelativeHumidity_IsbL-0275_LatLon0.15_PT069H.grib2 2026-04-30 04:16 879K
20260430T00Z_MSC_GDPS_RelativeHumidity_IsbL-0300_LatLon0.15_PT069H.grib2 2026-04-30 04:16 923K
20260430T00Z_MSC_GDPS_RelativeHumidity_IsbL-0350_LatLon0.15_PT069H.grib2 2026-04-30 04:16 946K
20260430T00Z_MSC_GDPS_RelativeHumidity_IsbL-0400_LatLon0.15_PT069H.grib2 2026-04-30 04:16 1.0M
20260430T00Z_MSC_GDPS_RelativeHumidity_IsbL-0450_LatLon0.15_PT069H.grib2 2026-04-30 04:16 1.0M
20260430T00Z_MSC_GDPS_RelativeHumidity_IsbL-0500_LatLon0.15_PT069H.grib2 2026-04-30 04:16 1.0M
20260430T00Z_MSC_GDPS_RelativeHumidity_IsbL-0550_LatLon0.15_PT069H.grib2 2026-04-30 04:16 1.0M
20260430T00Z_MSC_GDPS_RelativeHumidity_IsbL-0600_LatLon0.15_PT069H.grib2 2026-04-30 04:16 1.0M
20260430T00Z_MSC_GDPS_RelativeHumidity_IsbL-0650_LatLon0.15_PT069H.grib2 2026-04-30 04:16 1.1M
20260430T00Z_MSC_GDPS_RelativeHumidity_IsbL-0700_LatLon0.15_PT069H.grib2 2026-04-30 04:16 1.1M
20260430T00Z_MSC_GDPS_RelativeHumidity_IsbL-0750_LatLon0.15_PT069H.grib2 2026-04-30 04:16 1.2M
20260430T00Z_MSC_GDPS_RelativeHumidity_IsbL-0800_LatLon0.15_PT069H.grib2 2026-04-30 04:16 1.3M
20260430T00Z_MSC_GDPS_RelativeHumidity_IsbL-0850_LatLon0.15_PT069H.grib2 2026-04-30 04:16 1.3M
20260430T00Z_MSC_GDPS_RelativeHumidity_IsbL-0875_LatLon0.15_PT069H.grib2 2026-04-30 04:16 1.3M
20260430T00Z_MSC_GDPS_RelativeHumidity_IsbL-0900_LatLon0.15_PT069H.grib2 2026-04-30 04:16 1.3M
20260430T00Z_MSC_GDPS_RelativeHumidity_IsbL-0925_LatLon0.15_PT069H.grib2 2026-04-30 04:16 1.2M
20260430T00Z_MSC_GDPS_RelativeHumidity_IsbL-0950_LatLon0.15_PT069H.grib2 2026-04-30 04:16 1.2M
20260430T00Z_MSC_GDPS_RelativeHumidity_IsbL-0970_LatLon0.15_PT069H.grib2 2026-04-30 04:16 1.2M
20260430T00Z_MSC_GDPS_RelativeHumidity_IsbL-0985_LatLon0.15_PT069H.grib2 2026-04-30 04:16 1.2M
20260430T00Z_MSC_GDPS_RelativeHumidity_IsbL-1000_LatLon0.15_PT069H.grib2 2026-04-30 04:16 1.1M
20260430T00Z_MSC_GDPS_RelativeHumidity_IsbL-1015_LatLon0.15_PT069H.grib2 2026-04-30 04:16 1.0M
20260430T00Z_MSC_GDPS_RelativeVorticity_IsbL-0200_LatLon0.15_PT069H.grib2 2026-04-30 04:16 1.5M
20260430T00Z_MSC_GDPS_RelativeVorticity_IsbL-0250_LatLon0.15_PT069H.grib2 2026-04-30 04:16 1.6M
20260430T00Z_MSC_GDPS_RelativeVorticity_IsbL-0500_LatLon0.15_PT069H.grib2 2026-04-30 04:16 1.5M
20260430T00Z_MSC_GDPS_RelativeVorticity_IsbL-0700_LatLon0.15_PT069H.grib2 2026-04-30 04:16 1.3M
20260430T00Z_MSC_GDPS_RelativeVorticity_IsbL-0850_LatLon0.15_PT069H.grib2 2026-04-30 04:16 1.6M
20260430T00Z_MSC_GDPS_Runoff-Accum_Sfc_LatLon0.15_PT069H.grib2 2026-04-30 04:16 150K
20260430T00Z_MSC_GDPS_SensibleHeatNetFlux_Sfc_LatLon0.15_PT069H.grib2 2026-04-30 04:16 614K
20260430T00Z_MSC_GDPS_ShowalterIndex_IsbL-0500_LatLon0.15_PT069H.grib2 2026-04-30 04:16 6.2M
20260430T00Z_MSC_GDPS_Snow-Accum1h_Sfc_LatLon0.15_PT069H.grib2 2026-04-30 04:16 1.1M
20260430T00Z_MSC_GDPS_Snow-Accum3h_Sfc_LatLon0.15_PT069H.grib2 2026-04-30 04:16 1.1M
20260430T00Z_MSC_GDPS_Snow-Accum_Sfc_LatLon0.15_PT069H.grib2 2026-04-30 04:16 2.0M
20260430T00Z_MSC_GDPS_SnowDensity_Sfc_LatLon0.15_PT069H.grib2 2026-04-30 04:16 266K
20260430T00Z_MSC_GDPS_SnowDepth_Sfc_LatLon0.15_PT069H.grib2 2026-04-30 04:16 1.7M
20260430T00Z_MSC_GDPS_SoilTemp_DBS-0to10cm_LatLon0.15_PT069H.grib2 2026-04-30 04:16 507K
20260430T00Z_MSC_GDPS_SoilTemp_Sfc_LatLon0.15_PT069H.grib2 2026-04-30 04:16 568K
20260430T00Z_MSC_GDPS_SoilVolumetricIceContent_Sfc_LatLon0.15_PT069H.grib2 2026-04-30 04:16 200K
20260430T00Z_MSC_GDPS_SoilVolumetricWaterContent_DBS-0to10cm_LatLon0.15_PT069H.grib2 2026-04-30 04:16 587K
20260430T00Z_MSC_GDPS_SoilVolumetricWaterContent_DBS-0to1cm_LatLon0.15_PT069H.grib2 2026-04-30 04:16 652K
20260430T00Z_MSC_GDPS_SpecificHumidity_AGL-120m_LatLon0.15_PT069H.grib2 2026-04-30 04:16 1.1M
20260430T00Z_MSC_GDPS_SpecificHumidity_AGL-2m_LatLon0.15_PT069H.grib2 2026-04-30 04:16 1.2M
20260430T00Z_MSC_GDPS_SpecificHumidity_AGL-40m_LatLon0.15_PT069H.grib2 2026-04-30 04:16 1.1M
20260430T00Z_MSC_GDPS_SpecificHumidity_AGL-80m_LatLon0.15_PT069H.grib2 2026-04-30 04:16 1.1M
20260430T00Z_MSC_GDPS_SpecificHumidity_IsbL-0001_LatLon0.15_PT069H.grib2 2026-04-30 04:16 1.3M
20260430T00Z_MSC_GDPS_SpecificHumidity_IsbL-0005_LatLon0.15_PT069H.grib2 2026-04-30 04:16 1.2M
20260430T00Z_MSC_GDPS_SpecificHumidity_IsbL-0010_LatLon0.15_PT069H.grib2 2026-04-30 04:16 1.3M
20260430T00Z_MSC_GDPS_SpecificHumidity_IsbL-0020_LatLon0.15_PT069H.grib2 2026-04-30 04:16 1.4M
20260430T00Z_MSC_GDPS_SpecificHumidity_IsbL-0030_LatLon0.15_PT069H.grib2 2026-04-30 04:16 1.3M
20260430T00Z_MSC_GDPS_SpecificHumidity_IsbL-0050_LatLon0.15_PT069H.grib2 2026-04-30 04:16 1.3M
20260430T00Z_MSC_GDPS_SpecificHumidity_IsbL-0100_LatLon0.15_PT069H.grib2 2026-04-30 04:16 1.4M
20260430T00Z_MSC_GDPS_SpecificHumidity_IsbL-0150_LatLon0.15_PT069H.grib2 2026-04-30 04:16 1.3M
20260430T00Z_MSC_GDPS_SpecificHumidity_IsbL-0175_LatLon0.15_PT069H.grib2 2026-04-30 04:16 1.2M
20260430T00Z_MSC_GDPS_SpecificHumidity_IsbL-0200_LatLon0.15_PT069H.grib2 2026-04-30 04:16 1.3M
20260430T00Z_MSC_GDPS_SpecificHumidity_IsbL-0225_LatLon0.15_PT069H.grib2 2026-04-30 04:16 1.3M
20260430T00Z_MSC_GDPS_SpecificHumidity_IsbL-0250_LatLon0.15_PT069H.grib2 2026-04-30 04:16 1.4M
20260430T00Z_MSC_GDPS_SpecificHumidity_IsbL-0275_LatLon0.15_PT069H.grib2 2026-04-30 04:16 1.3M
20260430T00Z_MSC_GDPS_SpecificHumidity_IsbL-0300_LatLon0.15_PT069H.grib2 2026-04-30 04:16 1.2M
20260430T00Z_MSC_GDPS_SpecificHumidity_IsbL-0350_LatLon0.15_PT069H.grib2 2026-04-30 04:16 1.2M
20260430T00Z_MSC_GDPS_SpecificHumidity_IsbL-0400_LatLon0.15_PT069H.grib2 2026-04-30 04:16 1.5M
20260430T00Z_MSC_GDPS_SpecificHumidity_IsbL-0450_LatLon0.15_PT069H.grib2 2026-04-30 04:16 1.6M
20260430T00Z_MSC_GDPS_SpecificHumidity_IsbL-0500_LatLon0.15_PT069H.grib2 2026-04-30 04:16 1.4M
20260430T00Z_MSC_GDPS_SpecificHumidity_IsbL-0550_LatLon0.15_PT069H.grib2 2026-04-30 04:16 1.6M
20260430T00Z_MSC_GDPS_SpecificHumidity_IsbL-0600_LatLon0.15_PT069H.grib2 2026-04-30 04:16 1.7M
20260430T00Z_MSC_GDPS_SpecificHumidity_IsbL-0650_LatLon0.15_PT069H.grib2 2026-04-30 04:16 1.5M
20260430T00Z_MSC_GDPS_SpecificHumidity_IsbL-0700_LatLon0.15_PT069H.grib2 2026-04-30 04:16 1.6M
20260430T00Z_MSC_GDPS_SpecificHumidity_IsbL-0750_LatLon0.15_PT069H.grib2 2026-04-30 04:16 1.7M
20260430T00Z_MSC_GDPS_SpecificHumidity_IsbL-0800_LatLon0.15_PT069H.grib2 2026-04-30 04:16 1.9M
20260430T00Z_MSC_GDPS_SpecificHumidity_IsbL-0850_LatLon0.15_PT069H.grib2 2026-04-30 04:16 1.9M
20260430T00Z_MSC_GDPS_SpecificHumidity_IsbL-0875_LatLon0.15_PT069H.grib2 2026-04-30 04:16 1.9M
20260430T00Z_MSC_GDPS_SpecificHumidity_IsbL-0900_LatLon0.15_PT069H.grib2 2026-04-30 04:16 1.6M
20260430T00Z_MSC_GDPS_SpecificHumidity_IsbL-0925_LatLon0.15_PT069H.grib2 2026-04-30 04:16 1.6M
20260430T00Z_MSC_GDPS_SpecificHumidity_IsbL-0950_LatLon0.15_PT069H.grib2 2026-04-30 04:16 1.6M
20260430T00Z_MSC_GDPS_SpecificHumidity_IsbL-0970_LatLon0.15_PT069H.grib2 2026-04-30 04:16 1.5M
20260430T00Z_MSC_GDPS_SpecificHumidity_IsbL-0985_LatLon0.15_PT069H.grib2 2026-04-30 04:16 1.5M
20260430T00Z_MSC_GDPS_SpecificHumidity_IsbL-1000_LatLon0.15_PT069H.grib2 2026-04-30 04:16 1.5M
20260430T00Z_MSC_GDPS_SpecificHumidity_IsbL-1015_LatLon0.15_PT069H.grib2 2026-04-30 04:16 1.4M
20260430T00Z_MSC_GDPS_SpecificHumidity_Sfc_LatLon0.15_PT069H.grib2 2026-04-30 04:16 661K
20260430T00Z_MSC_GDPS_Thickness_IsbL-0850to0700_LatLon0.15_PT069H.grib2 2026-04-30 04:16 468K
20260430T00Z_MSC_GDPS_Thickness_IsbL-1000to0500_LatLon0.15_PT069H.grib2 2026-04-30 04:16 373K
20260430T00Z_MSC_GDPS_Thickness_IsbL-1000to0850_LatLon0.15_PT069H.grib2 2026-04-30 04:16 489K
20260430T00Z_MSC_GDPS_TotalCloudCover_Sfc_LatLon0.15_PT069H.grib2 2026-04-30 04:16 826K
20260430T00Z_MSC_GDPS_TotalTotalsIndex_Sfc_LatLon0.15_PT069H.grib2 2026-04-30 04:16 6.2M
20260430T00Z_MSC_GDPS_UVIndex-ClearSky_Sfc_LatLon0.15_PT069H.grib2 2026-04-30 04:50 1.0M
20260430T00Z_MSC_GDPS_UVIndex_Sfc_LatLon0.15_PT069H.grib2 2026-04-30 04:50 1.5M
20260430T00Z_MSC_GDPS_UpwardLongwaveRadiationFlux_NTAtm_LatLon0.15_PT069H.grib2 2026-04-30 04:16 839K
20260430T00Z_MSC_GDPS_VerticalVelocity_IsbL-0200_LatLon0.15_PT069H.grib2 2026-04-30 04:16 1.1M
20260430T00Z_MSC_GDPS_VerticalVelocity_IsbL-0250_LatLon0.15_PT069H.grib2 2026-04-30 04:16 1.3M
20260430T00Z_MSC_GDPS_VerticalVelocity_IsbL-0500_LatLon0.15_PT069H.grib2 2026-04-30 04:16 1.3M
20260430T00Z_MSC_GDPS_VerticalVelocity_IsbL-0600_LatLon0.15_PT069H.grib2 2026-04-30 04:16 1.1M
20260430T00Z_MSC_GDPS_VerticalVelocity_IsbL-0700_LatLon0.15_PT069H.grib2 2026-04-30 04:16 1.1M
20260430T00Z_MSC_GDPS_VerticalVelocity_IsbL-0850_LatLon0.15_PT069H.grib2 2026-04-30 04:16 1.3M
20260430T00Z_MSC_GDPS_WindChill_Sfc_LatLon0.15_PT069H.grib2 2026-04-30 04:16 5.3M
20260430T00Z_MSC_GDPS_WindDir_AGL-10m_LatLon0.15_PT069H.grib2 2026-04-30 04:16 1.3M
20260430T00Z_MSC_GDPS_WindDir_AGL-120m_LatLon0.15_PT069H.grib2 2026-04-30 04:16 1.3M
20260430T00Z_MSC_GDPS_WindDir_AGL-40m_LatLon0.15_PT069H.grib2 2026-04-30 04:16 1.4M
20260430T00Z_MSC_GDPS_WindDir_AGL-80m_LatLon0.15_PT069H.grib2 2026-04-30 04:16 1.4M
20260430T00Z_MSC_GDPS_WindDir_IsbL-0001_LatLon0.15_PT069H.grib2 2026-04-30 04:16 675K
20260430T00Z_MSC_GDPS_WindDir_IsbL-0005_LatLon0.15_PT069H.grib2 2026-04-30 04:16 798K
20260430T00Z_MSC_GDPS_WindDir_IsbL-0010_LatLon0.15_PT069H.grib2 2026-04-30 04:16 837K
20260430T00Z_MSC_GDPS_WindDir_IsbL-0020_LatLon0.15_PT069H.grib2 2026-04-30 04:16 941K
20260430T00Z_MSC_GDPS_WindDir_IsbL-0030_LatLon0.15_PT069H.grib2 2026-04-30 04:16 931K
20260430T00Z_MSC_GDPS_WindDir_IsbL-0050_LatLon0.15_PT069H.grib2 2026-04-30 04:16 951K
20260430T00Z_MSC_GDPS_WindDir_IsbL-0100_LatLon0.15_PT069H.grib2 2026-04-30 04:16 1.0M
20260430T00Z_MSC_GDPS_WindDir_IsbL-0150_LatLon0.15_PT069H.grib2 2026-04-30 04:16 1.0M
20260430T00Z_MSC_GDPS_WindDir_IsbL-0175_LatLon0.15_PT069H.grib2 2026-04-30 04:16 1.0M
20260430T00Z_MSC_GDPS_WindDir_IsbL-0200_LatLon0.15_PT069H.grib2 2026-04-30 04:16 1.1M
20260430T00Z_MSC_GDPS_WindDir_IsbL-0225_LatLon0.15_PT069H.grib2 2026-04-30 04:16 1.1M
20260430T00Z_MSC_GDPS_WindDir_IsbL-0250_LatLon0.15_PT069H.grib2 2026-04-30 04:16 1.1M
20260430T00Z_MSC_GDPS_WindDir_IsbL-0275_LatLon0.15_PT069H.grib2 2026-04-30 04:16 1.2M
20260430T00Z_MSC_GDPS_WindDir_IsbL-0300_LatLon0.15_PT069H.grib2 2026-04-30 04:16 1.2M
20260430T00Z_MSC_GDPS_WindDir_IsbL-0350_LatLon0.15_PT069H.grib2 2026-04-30 04:16 1.2M
20260430T00Z_MSC_GDPS_WindDir_IsbL-0400_LatLon0.15_PT069H.grib2 2026-04-30 04:16 1.3M
20260430T00Z_MSC_GDPS_WindDir_IsbL-0450_LatLon0.15_PT069H.grib2 2026-04-30 04:16 1.3M
20260430T00Z_MSC_GDPS_WindDir_IsbL-0500_LatLon0.15_PT069H.grib2 2026-04-30 04:16 1.3M
20260430T00Z_MSC_GDPS_WindDir_IsbL-0550_LatLon0.15_PT069H.grib2 2026-04-30 04:16 1.4M
20260430T00Z_MSC_GDPS_WindDir_IsbL-0600_LatLon0.15_PT069H.grib2 2026-04-30 04:16 1.4M
20260430T00Z_MSC_GDPS_WindDir_IsbL-0650_LatLon0.15_PT069H.grib2 2026-04-30 04:16 1.5M
20260430T00Z_MSC_GDPS_WindDir_IsbL-0700_LatLon0.15_PT069H.grib2 2026-04-30 04:16 1.6M
20260430T00Z_MSC_GDPS_WindDir_IsbL-0750_LatLon0.15_PT069H.grib2 2026-04-30 04:16 1.7M
20260430T00Z_MSC_GDPS_WindDir_IsbL-0800_LatLon0.15_PT069H.grib2 2026-04-30 04:16 1.8M
20260430T00Z_MSC_GDPS_WindDir_IsbL-0850_LatLon0.15_PT069H.grib2 2026-04-30 04:16 1.9M
20260430T00Z_MSC_GDPS_WindDir_IsbL-0875_LatLon0.15_PT069H.grib2 2026-04-30 04:16 1.9M
20260430T00Z_MSC_GDPS_WindDir_IsbL-0900_LatLon0.15_PT069H.grib2 2026-04-30 04:16 2.0M
20260430T00Z_MSC_GDPS_WindDir_IsbL-0925_LatLon0.15_PT069H.grib2 2026-04-30 04:16 2.0M
20260430T00Z_MSC_GDPS_WindDir_IsbL-0950_LatLon0.15_PT069H.grib2 2026-04-30 04:16 2.0M
20260430T00Z_MSC_GDPS_WindDir_IsbL-0970_LatLon0.15_PT069H.grib2 2026-04-30 04:16 2.0M
20260430T00Z_MSC_GDPS_WindDir_IsbL-0985_LatLon0.15_PT069H.grib2 2026-04-30 04:16 2.0M
20260430T00Z_MSC_GDPS_WindDir_IsbL-1000_LatLon0.15_PT069H.grib2 2026-04-30 04:16 2.1M
20260430T00Z_MSC_GDPS_WindDir_IsbL-1015_LatLon0.15_PT069H.grib2 2026-04-30 04:16 2.0M
20260430T00Z_MSC_GDPS_WindGust-Max_AGL-10m_LatLon0.15_PT069H.grib2 2026-04-30 04:16 2.2M
20260430T00Z_MSC_GDPS_WindGust-Min_AGL-10m_LatLon0.15_PT069H.grib2 2026-04-30 04:16 2.1M
20260430T00Z_MSC_GDPS_WindGust_AGL-10m_LatLon0.15_PT069H.grib2 2026-04-30 04:16 2.1M
20260430T00Z_MSC_GDPS_WindSpeed_AGL-10m_LatLon0.15_PT069H.grib2 2026-04-30 04:16 1.1M
20260430T00Z_MSC_GDPS_WindSpeed_AGL-120m_LatLon0.15_PT069H.grib2 2026-04-30 04:16 1.3M
20260430T00Z_MSC_GDPS_WindSpeed_AGL-40m_LatLon0.15_PT069H.grib2 2026-04-30 04:16 1.2M
20260430T00Z_MSC_GDPS_WindSpeed_AGL-80m_LatLon0.15_PT069H.grib2 2026-04-30 04:16 1.3M
20260430T00Z_MSC_GDPS_WindSpeed_IsbL-0001_LatLon0.15_PT069H.grib2 2026-04-30 04:16 639K
20260430T00Z_MSC_GDPS_WindSpeed_IsbL-0005_LatLon0.15_PT069H.grib2 2026-04-30 04:16 691K
20260430T00Z_MSC_GDPS_WindSpeed_IsbL-0010_LatLon0.15_PT069H.grib2 2026-04-30 04:16 626K
20260430T00Z_MSC_GDPS_WindSpeed_IsbL-0020_LatLon0.15_PT069H.grib2 2026-04-30 04:16 666K
20260430T00Z_MSC_GDPS_WindSpeed_IsbL-0030_LatLon0.15_PT069H.grib2 2026-04-30 04:16 862K
20260430T00Z_MSC_GDPS_WindSpeed_IsbL-0050_LatLon0.15_PT069H.grib2 2026-04-30 04:16 908K
20260430T00Z_MSC_GDPS_WindSpeed_IsbL-0100_LatLon0.15_PT069H.grib2 2026-04-30 04:16 1.1M
20260430T00Z_MSC_GDPS_WindSpeed_IsbL-0150_LatLon0.15_PT069H.grib2 2026-04-30 04:16 950K
20260430T00Z_MSC_GDPS_WindSpeed_IsbL-0175_LatLon0.15_PT069H.grib2 2026-04-30 04:16 1.0M
20260430T00Z_MSC_GDPS_WindSpeed_IsbL-0200_LatLon0.15_PT069H.grib2 2026-04-30 04:16 1.1M
20260430T00Z_MSC_GDPS_WindSpeed_IsbL-0225_LatLon0.15_PT069H.grib2 2026-04-30 04:16 1.1M
20260430T00Z_MSC_GDPS_WindSpeed_IsbL-0250_LatLon0.15_PT069H.grib2 2026-04-30 04:16 1.1M
20260430T00Z_MSC_GDPS_WindSpeed_IsbL-0275_LatLon0.15_PT069H.grib2 2026-04-30 04:16 1.1M
20260430T00Z_MSC_GDPS_WindSpeed_IsbL-0300_LatLon0.15_PT069H.grib2 2026-04-30 04:16 1.1M
20260430T00Z_MSC_GDPS_WindSpeed_IsbL-0350_LatLon0.15_PT069H.grib2 2026-04-30 04:16 1.1M
20260430T00Z_MSC_GDPS_WindSpeed_IsbL-0400_LatLon0.15_PT069H.grib2 2026-04-30 04:16 1.1M
20260430T00Z_MSC_GDPS_WindSpeed_IsbL-0450_LatLon0.15_PT069H.grib2 2026-04-30 04:16 1.1M
20260430T00Z_MSC_GDPS_WindSpeed_IsbL-0500_LatLon0.15_PT069H.grib2 2026-04-30 04:16 1.1M
20260430T00Z_MSC_GDPS_WindSpeed_IsbL-0550_LatLon0.15_PT069H.grib2 2026-04-30 04:16 1.1M
20260430T00Z_MSC_GDPS_WindSpeed_IsbL-0600_LatLon0.15_PT069H.grib2 2026-04-30 04:16 1.4M
20260430T00Z_MSC_GDPS_WindSpeed_IsbL-0650_LatLon0.15_PT069H.grib2 2026-04-30 04:16 1.4M
20260430T00Z_MSC_GDPS_WindSpeed_IsbL-0700_LatLon0.15_PT069H.grib2 2026-04-30 04:16 1.5M
20260430T00Z_MSC_GDPS_WindSpeed_IsbL-0750_LatLon0.15_PT069H.grib2 2026-04-30 04:16 1.6M
20260430T00Z_MSC_GDPS_WindSpeed_IsbL-0800_LatLon0.15_PT069H.grib2 2026-04-30 04:16 1.6M
20260430T00Z_MSC_GDPS_WindSpeed_IsbL-0850_LatLon0.15_PT069H.grib2 2026-04-30 04:16 1.7M
20260430T00Z_MSC_GDPS_WindSpeed_IsbL-0875_LatLon0.15_PT069H.grib2 2026-04-30 04:16 1.8M
20260430T00Z_MSC_GDPS_WindSpeed_IsbL-0900_LatLon0.15_PT069H.grib2 2026-04-30 04:16 1.8M
20260430T00Z_MSC_GDPS_WindSpeed_IsbL-0925_LatLon0.15_PT069H.grib2 2026-04-30 04:16 1.8M
20260430T00Z_MSC_GDPS_WindSpeed_IsbL-0950_LatLon0.15_PT069H.grib2 2026-04-30 04:16 1.8M
20260430T00Z_MSC_GDPS_WindSpeed_IsbL-0970_LatLon0.15_PT069H.grib2 2026-04-30 04:16 1.9M
20260430T00Z_MSC_GDPS_WindSpeed_IsbL-0985_LatLon0.15_PT069H.grib2 2026-04-30 04:16 1.9M
20260430T00Z_MSC_GDPS_WindSpeed_IsbL-1000_LatLon0.15_PT069H.grib2 2026-04-30 04:16 1.9M
20260430T00Z_MSC_GDPS_WindSpeed_IsbL-1015_LatLon0.15_PT069H.grib2 2026-04-30 04:16 1.8M
20260430T00Z_MSC_GDPS_WindU_AGL-10m_LatLon0.15_PT069H.grib2 2026-04-30 04:16 1.3M
20260430T00Z_MSC_GDPS_WindU_AGL-120m_LatLon0.15_PT069H.grib2 2026-04-30 04:16 1.0M
20260430T00Z_MSC_GDPS_WindU_AGL-40m_LatLon0.15_PT069H.grib2 2026-04-30 04:16 1.0M
20260430T00Z_MSC_GDPS_WindU_AGL-80m_LatLon0.15_PT069H.grib2 2026-04-30 04:16 1.0M
20260430T00Z_MSC_GDPS_WindU_IsbL-0001_LatLon0.15_PT069H.grib2 2026-04-30 04:16 500K
20260430T00Z_MSC_GDPS_WindU_IsbL-0005_LatLon0.15_PT069H.grib2 2026-04-30 04:16 690K
20260430T00Z_MSC_GDPS_WindU_IsbL-0010_LatLon0.15_PT069H.grib2 2026-04-30 04:16 702K
20260430T00Z_MSC_GDPS_WindU_IsbL-0020_LatLon0.15_PT069H.grib2 2026-04-30 04:16 732K
20260430T00Z_MSC_GDPS_WindU_IsbL-0030_LatLon0.15_PT069H.grib2 2026-04-30 04:16 738K
20260430T00Z_MSC_GDPS_WindU_IsbL-0050_LatLon0.15_PT069H.grib2 2026-04-30 04:16 767K
20260430T00Z_MSC_GDPS_WindU_IsbL-0100_LatLon0.15_PT069H.grib2 2026-04-30 04:16 928K
20260430T00Z_MSC_GDPS_WindU_IsbL-0150_LatLon0.15_PT069H.grib2 2026-04-30 04:16 1.0M
20260430T00Z_MSC_GDPS_WindU_IsbL-0175_LatLon0.15_PT069H.grib2 2026-04-30 04:16 818K
20260430T00Z_MSC_GDPS_WindU_IsbL-0200_LatLon0.15_PT069H.grib2 2026-04-30 04:16 1.0M
20260430T00Z_MSC_GDPS_WindU_IsbL-0225_LatLon0.15_PT069H.grib2 2026-04-30 04:16 852K
20260430T00Z_MSC_GDPS_WindU_IsbL-0250_LatLon0.15_PT069H.grib2 2026-04-30 04:16 854K
20260430T00Z_MSC_GDPS_WindU_IsbL-0275_LatLon0.15_PT069H.grib2 2026-04-30 04:16 883K
20260430T00Z_MSC_GDPS_WindU_IsbL-0300_LatLon0.15_PT069H.grib2 2026-04-30 04:16 874K
20260430T00Z_MSC_GDPS_WindU_IsbL-0350_LatLon0.15_PT069H.grib2 2026-04-30 04:16 890K
20260430T00Z_MSC_GDPS_WindU_IsbL-0400_LatLon0.15_PT069H.grib2 2026-04-30 04:16 893K
20260430T00Z_MSC_GDPS_WindU_IsbL-0450_LatLon0.15_PT069H.grib2 2026-04-30 04:16 1.1M
20260430T00Z_MSC_GDPS_WindU_IsbL-0500_LatLon0.15_PT069H.grib2 2026-04-30 04:16 1.1M
20260430T00Z_MSC_GDPS_WindU_IsbL-0550_LatLon0.15_PT069H.grib2 2026-04-30 04:16 1.1M
20260430T00Z_MSC_GDPS_WindU_IsbL-0600_LatLon0.15_PT069H.grib2 2026-04-30 04:16 1.2M
20260430T00Z_MSC_GDPS_WindU_IsbL-0650_LatLon0.15_PT069H.grib2 2026-04-30 04:16 1.2M
20260430T00Z_MSC_GDPS_WindU_IsbL-0700_LatLon0.15_PT069H.grib2 2026-04-30 04:16 1.2M
20260430T00Z_MSC_GDPS_WindU_IsbL-0750_LatLon0.15_PT069H.grib2 2026-04-30 04:16 1.3M
20260430T00Z_MSC_GDPS_WindU_IsbL-0800_LatLon0.15_PT069H.grib2 2026-04-30 04:16 1.4M
20260430T00Z_MSC_GDPS_WindU_IsbL-0850_LatLon0.15_PT069H.grib2 2026-04-30 04:16 1.4M
20260430T00Z_MSC_GDPS_WindU_IsbL-0875_LatLon0.15_PT069H.grib2 2026-04-30 04:16 1.5M
20260430T00Z_MSC_GDPS_WindU_IsbL-0900_LatLon0.15_PT069H.grib2 2026-04-30 04:16 1.5M
20260430T00Z_MSC_GDPS_WindU_IsbL-0925_LatLon0.15_PT069H.grib2 2026-04-30 04:16 1.5M
20260430T00Z_MSC_GDPS_WindU_IsbL-0950_LatLon0.15_PT069H.grib2 2026-04-30 04:16 1.4M
20260430T00Z_MSC_GDPS_WindU_IsbL-0970_LatLon0.15_PT069H.grib2 2026-04-30 04:16 1.4M
20260430T00Z_MSC_GDPS_WindU_IsbL-0985_LatLon0.15_PT069H.grib2 2026-04-30 04:16 1.4M
20260430T00Z_MSC_GDPS_WindU_IsbL-1000_LatLon0.15_PT069H.grib2 2026-04-30 04:16 1.4M
20260430T00Z_MSC_GDPS_WindU_IsbL-1015_LatLon0.15_PT069H.grib2 2026-04-30 04:16 1.4M
20260430T00Z_MSC_GDPS_WindV_AGL-10m_LatLon0.15_PT069H.grib2 2026-04-30 04:16 1.3M
20260430T00Z_MSC_GDPS_WindV_AGL-120m_LatLon0.15_PT069H.grib2 2026-04-30 04:16 1.0M
20260430T00Z_MSC_GDPS_WindV_AGL-40m_LatLon0.15_PT069H.grib2 2026-04-30 04:16 1.0M
20260430T00Z_MSC_GDPS_WindV_AGL-80m_LatLon0.15_PT069H.grib2 2026-04-30 04:16 1.0M
20260430T00Z_MSC_GDPS_WindV_IsbL-0001_LatLon0.15_PT069H.grib2 2026-04-30 04:16 777K
20260430T00Z_MSC_GDPS_WindV_IsbL-0005_LatLon0.15_PT069H.grib2 2026-04-30 04:16 762K
20260430T00Z_MSC_GDPS_WindV_IsbL-0010_LatLon0.15_PT069H.grib2 2026-04-30 04:16 795K
20260430T00Z_MSC_GDPS_WindV_IsbL-0020_LatLon0.15_PT069H.grib2 2026-04-30 04:16 935K
20260430T00Z_MSC_GDPS_WindV_IsbL-0030_LatLon0.15_PT069H.grib2 2026-04-30 04:16 937K
20260430T00Z_MSC_GDPS_WindV_IsbL-0050_LatLon0.15_PT069H.grib2 2026-04-30 04:16 1.0M
20260430T00Z_MSC_GDPS_WindV_IsbL-0100_LatLon0.15_PT069H.grib2 2026-04-30 04:16 1.1M
20260430T00Z_MSC_GDPS_WindV_IsbL-0150_LatLon0.15_PT069H.grib2 2026-04-30 04:16 1.0M
20260430T00Z_MSC_GDPS_WindV_IsbL-0175_LatLon0.15_PT069H.grib2 2026-04-30 04:16 1.0M
20260430T00Z_MSC_GDPS_WindV_IsbL-0200_LatLon0.15_PT069H.grib2 2026-04-30 04:16 843K
20260430T00Z_MSC_GDPS_WindV_IsbL-0225_LatLon0.15_PT069H.grib2 2026-04-30 04:16 850K
20260430T00Z_MSC_GDPS_WindV_IsbL-0250_LatLon0.15_PT069H.grib2 2026-04-30 04:16 849K
20260430T00Z_MSC_GDPS_WindV_IsbL-0275_LatLon0.15_PT069H.grib2 2026-04-30 04:16 876K
20260430T00Z_MSC_GDPS_WindV_IsbL-0300_LatLon0.15_PT069H.grib2 2026-04-30 04:16 924K
20260430T00Z_MSC_GDPS_WindV_IsbL-0350_LatLon0.15_PT069H.grib2 2026-04-30 04:16 878K
20260430T00Z_MSC_GDPS_WindV_IsbL-0400_LatLon0.15_PT069H.grib2 2026-04-30 04:16 881K
20260430T00Z_MSC_GDPS_WindV_IsbL-0450_LatLon0.15_PT069H.grib2 2026-04-30 04:16 1.1M
20260430T00Z_MSC_GDPS_WindV_IsbL-0500_LatLon0.15_PT069H.grib2 2026-04-30 04:16 1.1M
20260430T00Z_MSC_GDPS_WindV_IsbL-0550_LatLon0.15_PT069H.grib2 2026-04-30 04:16 1.1M
20260430T00Z_MSC_GDPS_WindV_IsbL-0600_LatLon0.15_PT069H.grib2 2026-04-30 04:16 1.1M
20260430T00Z_MSC_GDPS_WindV_IsbL-0650_LatLon0.15_PT069H.grib2 2026-04-30 04:16 1.2M
20260430T00Z_MSC_GDPS_WindV_IsbL-0700_LatLon0.15_PT069H.grib2 2026-04-30 04:16 1.2M
20260430T00Z_MSC_GDPS_WindV_IsbL-0750_LatLon0.15_PT069H.grib2 2026-04-30 04:16 1.3M
20260430T00Z_MSC_GDPS_WindV_IsbL-0800_LatLon0.15_PT069H.grib2 2026-04-30 04:16 1.3M
20260430T00Z_MSC_GDPS_WindV_IsbL-0850_LatLon0.15_PT069H.grib2 2026-04-30 04:16 1.4M
20260430T00Z_MSC_GDPS_WindV_IsbL-0875_LatLon0.15_PT069H.grib2 2026-04-30 04:16 1.4M
20260430T00Z_MSC_GDPS_WindV_IsbL-0900_LatLon0.15_PT069H.grib2 2026-04-30 04:16 1.5M
20260430T00Z_MSC_GDPS_WindV_IsbL-0925_LatLon0.15_PT069H.grib2 2026-04-30 04:16 1.5M
20260430T00Z_MSC_GDPS_WindV_IsbL-0950_LatLon0.15_PT069H.grib2 2026-04-30 04:16 1.4M
20260430T00Z_MSC_GDPS_WindV_IsbL-0970_LatLon0.15_PT069H.grib2 2026-04-30 04:16 1.4M
20260430T00Z_MSC_GDPS_WindV_IsbL-0985_LatLon0.15_PT069H.grib2 2026-04-30 04:16 1.4M
20260430T00Z_MSC_GDPS_WindV_IsbL-1000_LatLon0.15_PT069H.grib2 2026-04-30 04:16 1.4M
20260430T00Z_MSC_GDPS_WindV_IsbL-1015_LatLon0.15_PT069H.grib2 2026-04-30 04:16 1.3M